COSMOS 1261 DEB, 12894

Orbit data source: Space-Track

COSMOS 1261 DEB, 12894 is space debris in HEO originally from a launch on Tue, 31 Mar 1981 UTC launched from the Plesetsk Missile And Space Complex (PKMTR). Debris objects in space refer to the collection of defunct objects orbiting the Earth. Examples of debris include non-operational satellites, rocket bodies, and fragments generated from explosions, collisions, or faulty payload assembly.

Loading next visibility...
Identifier
12894, 1981-031G
Orbit
HEO
Country
Flag of CISCIS
Related business
Manufacturer
Unknown
Mission
Spacecraft
Bus & Motor
Unknown
Mass
Unknown
Launch date (UTC)
1981-03-31 (45 years ago)
Launch vehicle
Unknown
Launch site
Plesetsk Missile And Space Complex (PKMTR)
Object type
Payload
Rocket body
Debris
Shape & HBR
Unknown shape, 1.1 m
Radar Cross Section
Medium (>0.1 m² and <1 m²)

Expand to show TLE details & history
Last TLE update: 1 day ago

TLE from 1 day ago
0 COSMOS 1261 DEB
1 12894U 81031G   25302.89459306 -.00000435  00000-0  00000-0 0  9996
2 12894  69.4632 105.6714 5786936 355.8672   0.4646  2.00351394297140
Epoch: 2025-10-29T21:28Z
TLE epoch observation values (Epoch: 2025-10-29T21:28:12.840Z)
Latitude
-1.67233°
Longitude
104.5244°
Altitude
4,823.866 km
Speed
7.495 km/s
True Right ascension
07h 00m 09s
True Declination
-1° 39' 57"
Sunlit
Object was in daylight at epoch
Visualization orbit readout
Latitude
Unknown
Longitude
Unknown
Altitude
Unknown
Speed
Unknown
Apparent Right ascension
Unknown
Apparent Declination
Unknown
Sunlit
N/A
Visualization observer readout
Local Sidereal Time
23:53:53
Azimuth
Unknown
Elevation
Unknown
Doppler factor
Unknown
Orbital elements
Apogee altitude
35,580.622 km
Perigee altitude
4,819.409 km
Semi-major axis
26,578.152 km
Eccentricity
0.57869
Inclination
69.4632°
RAAN
105.6714°
Arg. of periapsis
355.8672°
True anomaly
2.13431°
Mean anomaly
0.4646°
Eccentric anomaly
1.10267°
Mean motion
0.50091 °/min
Orbital period
718.7 mins
BSTAR
0
Loading maneuver chart data...
Computing Atmospheric mass density...
Loading historical data...
Loading historical data...
Loading historical data...
Loading historical data...
Loading historical data...
Loading historical data...
Loading historical data...

Documentation

Showing up to 5 results
|